Location: Bothwell
(42.3833°S, 147.0000°E)
Time: 21:41:48
(UTC+10:00)

CUTE 1.7 + AOD 2 - Pass Details

Date: 06 February 2023
Orbit: 584 x 601 km, 97.7° (Epoch: 02 April)

Event Time Altitude Azimuth Distance (km) Brightness Sun altitude
Exits shadow 05:15:13 14° 281° (W) 1,662 ? -11.5°
Maximum altitude 05:15:49 15° 271° (W) 1,645 ? -11.4°
Drops below altitude 10° 05:18:12 10° 236° (SW) 1,943 ? -11.1°
Sets 05:21:17 0° 212° (SSW) 2,860 ? -10.6°
